Tulsa, OK

1:11 AM CST on November 19, 2017 (GMT -0600)
Tulsa International

Weather History for KTUL - May, 2013

Change the Weather History Date:

Friday, May 24, 2013

  Actual Average Record
Temperature  
Mean Temperature 69 °F 71 °F  
Max Temperature 79 °F 81 °F 94 °F (1911)
Min Temperature 58 °F 62 °F 42 °F (1935)
Cooling Degree Days 4 7  
Month to date cooling degree days 80 114  
Year to date cooling degree days 116 179  
Growing Degree Days 18 (Base 50)    
Moisture  
Dew Point 61 °F    
Average Humidity 76    
Maximum Humidity 90    
Minimum Humidity 62    
Precipitation  
Precipitation 0.00 in 0.19 in 3.16 in (1908)
Month to date precipitation 2.62 4.59  
Year to date precipitation 11.79 15.18  
Sea Level Pressure  
Sea Level Pressure 30.14 in    
Wind  
Wind Speed 10 mph (ESE)    
Max Wind Speed 17 mph    
Max Gust Speed 22 mph    
Visibility 10 miles    
Events      
T = Trace of Precipitation, MM = Missing Value Source: NWS Daily Summary

Daily Weather History Graph

Daily Weather History Graph

Search for Another Location

Airport or City:

Trip Planner

Search our weather history database for the weather conditions in past years. The results will help you decide how hot, cold, wet, or windy it might be!

Date:

Astronomy

May. 24, 2013 Rise Set
Actual Time 6:11 AM CDT 8:30 PM CDT
Civil Twilight 5:41 AM CDT 8:59 PM CDT
Nautical Twilight 5:05 AM CDT 9:35 PM CDT
Astronomical Twilight 4:26 AM CDT 10:15 PM CDT
Moon 8:14 PM CDT (5/24) 5:42 AM CDT (5/24)
Length of Visible Light 15h 17m
Length of Day
14h 19m
Full, 100% of the Moon is Illuminated
May 24
Full
May 24
Full
May 31
Last Quarter
Jun 8
New
Jun 16
First Quarter

Hourly Weather History & Observations

Time (CDT) Temp. Dew Point Humidity Pressure Visibility Wind Dir Wind Speed Gust Speed Precip Events Conditions
12:53 AM 62.1 °F 59.0 °F 90% 30.13 in 10.0 mi NNE 5.8 mph - N/A   Overcast
1:53 AM 60.1 °F 57.9 °F 93% 30.13 in 10.0 mi NNE 4.6 mph - N/A   Overcast
2:53 AM 62.1 °F 57.9 °F 86% 30.13 in 10.0 mi NNE 4.6 mph - N/A   Overcast
3:53 AM 61.0 °F 57.9 °F 90% 30.14 in 10.0 mi Variable 3.5 mph - N/A   Overcast
4:53 AM 60.1 °F 57.9 °F 93% 30.17 in 10.0 mi NE 5.8 mph - N/A   Overcast
5:53 AM 60.1 °F 57.0 °F 90% 30.17 in 10.0 mi ENE 5.8 mph - N/A   Overcast
6:53 AM 60.1 °F 57.0 °F 90% 30.17 in 10.0 mi ENE 6.9 mph - N/A   Mostly Cloudy
7:53 AM 62.1 °F 55.9 °F 80% 30.19 in 10.0 mi ENE 6.9 mph - N/A   Mostly Cloudy
8:53 AM 64.0 °F 57.9 °F 80% 30.20 in 9.0 mi ESE 11.5 mph 19.6 mph N/A   Scattered Clouds
9:53 AM 66.9 °F 59.0 °F 76% 30.20 in 10.0 mi ESE 15.0 mph - N/A   Scattered Clouds
10:53 AM 70.0 °F 60.1 °F 71% 30.19 in 10.0 mi SE 12.7 mph - N/A   Scattered Clouds
11:53 AM 73.0 °F 62.1 °F 68% 30.20 in 10.0 mi ESE 10.4 mph - N/A   Scattered Clouds
12:53 PM 75.0 °F 63.0 °F 66% 30.18 in 10.0 mi SE 12.7 mph 18.4 mph N/A   Scattered Clouds
1:53 PM 77.0 °F 64.0 °F 64% 30.17 in 10.0 mi SE 13.8 mph - N/A   Partly Cloudy
2:53 PM 79.0 °F 64.9 °F 62% 30.15 in 10.0 mi SSE 13.8 mph - N/A   Partly Cloudy
3:53 PM 79.0 °F 66.0 °F 64% 30.13 in 10.0 mi ESE 11.5 mph - N/A   Mostly Cloudy
4:53 PM 79.0 °F 66.0 °F 64% 30.11 in 10.0 mi SE 13.8 mph - N/A   Mostly Cloudy
5:53 PM 78.1 °F 64.9 °F 64% 30.10 in 10.0 mi SE 12.7 mph - N/A   Mostly Cloudy
6:53 PM 77.0 °F 64.9 °F 66% 30.09 in 10.0 mi SE 12.7 mph - N/A   Mostly Cloudy
7:53 PM 75.0 °F 64.0 °F 69% 30.09 in 10.0 mi SE 11.5 mph - N/A   Mostly Cloudy
8:53 PM 73.0 °F 63.0 °F 71% 30.10 in 10.0 mi SE 9.2 mph - N/A   Mostly Cloudy
9:53 PM 72.0 °F 61.0 °F 68% 30.11 in 10.0 mi SE 15.0 mph - N/A   Mostly Cloudy
10:53 PM 71.1 °F 61.0 °F 70% 30.12 in 10.0 mi SE 15.0 mph - N/A   Mostly Cloudy
11:53 PM 70.0 °F 60.1 °F 71% 30.11 in 10.0 mi SSE 11.5 mph - N/A   Overcast